Wind_Speed
38 39 39 40 40 41 41 42 42 43 43 43 44 44 44 45 46 46 46 46 46 47 47 48 48 48 48 48 49 48 48 48 48 48 48 48 48 48 47 48 48 48 49
37 37 38 39 40 40 41 41 42 42 42 43 43 44 44 44 45 45 45 46 46 47 47 48 48 48 47 47 47 47 47 47 47 46 46 46 46 47 47 47 47 47 47
39 38 38 39 40 40 40 41 41 42 42 43 43 43 43 44 44 44 45 45 46 46 47 47 47 47 47 47 47 47 46 46 45 46 45 45 46 46 47 47 46 46 46
38 38 38 39 39 40 40 40 41 41 41 42 42 42 42 43 43 43 44 44 45 45 46 46 46 46 47 47 46 45 45 45 44 44 44 44 45 46 46 46 45 45 45
38 38 38 38 39 39 39 39 40 40 40 40 40 41 41 41 42 43 43 43 43 44 44 44 45 45 45 45 45 44 44 44 43 44 43 44 44 44 44 43 43 43 43
37 38 38 38 38 39 39 38 38 38 38 39 39 40 40 40 40 41 41 42 42 42 42 43 43 43 43 43 43 43 43 43 42 42 43 42 42 42 41 41 42 41 41
37 37 37 37 37 38 38 37 37 37 37 37 37 38 39 39 39 40 40 41 41 40 40 40 40 41 41 41 41 41 41 41 42 42 42 42 41 41 41 40 40 40 40
35 35 35 35 35 35 35 35 36 36 35 35 36 37 37 37 37 37 37 37 37 38 38 39 39 39 39 39 39 39 39 40 41 41 42 41 40 40 39 39 38 38 38
32 32 32 32 32 32 32 32 33 34 34 34 34 34 34 35 35 35 35 35 36 36 36 36 36 37 37 37 37 37 38 38 39 39 39 39 39 39 38 37 37 36 35
29 29 30 29 30 30 30 30 30 31 31 31 31 32 33 33 33 33 34 34 34 34 35 35 35 34 34 34 35 35 35 36 36 36 36 37 37 37 36 35 35 34 33
27 27 27 27 27 27 28 28 28 29 29 29 30 30 31 31 31 31 32 32 33 33 33 33 33 33 33 33 33 33 33 33 33 33 34 34 34 34 34 33 32 31 31
25 25 26 25 25 26 26 26 26 27 28 28 29 30 30 30 30 30 31 31 31 31 31 31 31 31 31 31 31 31 31 31 31 31 31 31 31 31 31 30 30 30 30
25 24 25 25 25 24 24 24 24 25 26 27 28 28 28 29 29 29 29 29 29 29 28 28 28 28 29 30 30 30 29 29 29 29 29 28 29 28 27 27 27 27 27
24 24 25 25 23 22 23 23 24 24 25 25 26 26 26 27 27 27 26 26 27 26 26 26 26 26 27 27 28 27 26 26 27 27 26 26 25 25 25 25 25 25 26
23 24 24 24 23 23 23 22 23 24 24 24 23 24 24 24 25 25 25 25 25 25 25 25 25 25 25 25 24 24 24 24 24 24 24 23 23 23 23 24 24 24 25
23 22 22 22 22 22 21 21 22 22 23 23 23 23 23 23 23 23 23 23 22 22 22 22 22 22 22 22 22 23 23 23 23 22 22 22 22 22 22 23 24 24 24
21 21 20 20 21 21 20 20 21 21 21 21 22 22 21 22 21 21 21 20 21 21 21 20 20 20 19 20 20 21 21 21 21 21 21 21 21 21 22 23 23 22 21
20 20 20 20 20 20 19 19 20 20 20 20 20 19 20 20 20 19 19 19 19 19 19 19 19 18 18 18 18 18 18 19 19 20 19 19 19 20 20 20 20 19 19
20 21 20 19 19 19 19 19 19 19 19 18 18 18 18 17 17 17 17 17 17 17 17 17 18 17 17 17 16 16 16 16 17 17 17 17 17 18 18 18 17 17 16
20 20 20 19 18 18 19 19 18 18 18 17 17 16 16 16 16 16 16 16 16 16 15 15 16 15 15 15 15 15 15 15 15 16 16 16 16 16 16 15 14 14 14
19 19 19 19 18 18 18 17 16 16 15 15 15 15 15 15 15 15 15 15 14 14 14 13 14 13 13 13 13 13 14 14 14 15 15 14 14 14 14 13 12 12 11
19 19 19 18 18 17 16 15 14 14 14 14 13 14 14 14 14 14 14 13 12 12 12 11 12 11 11 11 11 11 12 12 13 13 13 13 12 11 11 10 10 9 8
19 18 17 16 16 15 14 14 13 13 13 13 12 13 13 13 13 13 12 12 11 10 10 10 10 10 10 10 10 11 11 11 11 11 11 10 9 9 8 8 7 7 6
17 16 16 15 14 14 14 14 13 12 12 12 12 12 12 11 11 11 10 10 10 9 9 10 10 10 10 10 10 9 9 9 8 8 8 8 7 7 7 6 6 5 5
15 14 14 14 14 14 14 14 13 12 12 12 11 11 11 10 10 9 8 9 9 9 9 9 9 9 9 8 8 8 8 7 7 7 6 6 6 5 5 5 5 5 5
13 13 13 13 13 13 13 13 12 12 12 12 11 10 10 9 9 9 8 8 8 8 8 8 8 8 8 8 8 7 6 6 6 6 5 5 5 5 4 5 5 5 5
Wind_Direction
269 269 269 269 269 269 268 267 266 265 266 266 267 267 267 267 266 267 268 269 269 269 268 268 268 268 268 269 269 269 270 271 271 271 272 273 274 274 275 275 275 276 276
270 270 269 270 270 271 270 268 267 266 266 267 268 267 267 267 267 267 268 269 269 269 268 268 268 268 268 268 268 269 270 271 271 272 272 272 273 273 274 275 275 276 276
270 270 270 270 270 271 271 269 268 267 267 267 268 267 266 266 266 267 267 268 268 269 269 269 268 268 268 268 268 268 269 270 272 272 272 272 273 274 275 275 276 277 277
271 271 271 271 271 271 270 269 268 269 269 268 267 267 266 266 266 267 268 269 269 270 269 269 268 268 268 268 268 268 269 269 271 271 272 272 273 274 276 276 276 277 278
273 272 272 272 271 270 269 268 268 269 269 269 268 268 268 267 267 268 269 270 271 271 270 269 268 268 269 269 268 267 268 269 270 271 271 272 273 275 276 277 277 277 278
273 272 272 273 272 271 269 268 268 269 269 269 268 268 267 268 268 269 270 270 271 271 270 269 269 269 269 269 268 268 268 269 270 271 272 272 273 274 275 277 278 278 278
273 272 271 272 272 271 269 267 267 269 269 270 269 268 268 268 268 269 270 271 271 271 271 270 269 269 269 269 268 269 269 269 270 271 272 273 273 273 275 276 277 278 279
274 272 272 272 272 271 269 268 268 269 270 270 270 270 269 269 269 270 270 271 271 271 271 270 270 270 270 269 268 269 269 270 271 272 273 272 272 273 275 276 277 279 279
273 272 272 272 272 270 270 270 269 268 269 270 270 269 269 270 270 270 271 272 272 272 272 271 271 271 270 270 269 269 269 269 270 272 273 272 272 274 275 277 278 278 278
273 272 272 271 271 271 270 271 269 269 271 271 271 270 270 271 271 271 271 272 272 273 272 271 270 270 270 269 269 269 269 270 270 271 272 273 274 275 276 277 277 277 277
274 274 274 273 273 272 273 272 271 271 271 271 272 271 270 270 271 272 273 273 273 273 272 271 270 268 268 269 269 269 270 270 270 271 272 273 274 273 275 276 276 276 277
276 275 275 275 276 275 273 273 273 272 271 271 272 272 271 270 271 272 273 273 273 272 271 270 269 267 267 267 268 269 270 270 270 271 272 273 273 273 273 274 274 276 277
277 276 276 277 277 274 273 273 274 274 274 273 272 272 272 272 272 273 273 273 273 272 270 269 269 268 267 266 266 268 269 270 270 271 272 274 274 272 270 273 276 277 278
277 275 275 276 275 273 273 273 274 275 276 275 273 273 274 273 272 273 273 273 272 271 269 269 269 268 268 267 267 267 269 270 270 271 272 274 273 270 271 275 277 279 280
277 276 274 273 273 273 274 275 275 276 277 276 274 275 275 274 274 273 273 273 271 270 269 268 269 268 268 268 268 268 268 269 269 270 271 271 270 270 272 276 280 282 283
278 276 273 271 272 274 275 277 277 278 278 276 274 274 275 275 275 274 273 272 270 269 269 269 270 270 269 268 267 267 267 267 268 269 269 270 271 272 275 278 281 283 283
279 277 274 272 273 273 275 277 279 280 279 277 274 274 275 276 275 274 272 271 269 268 268 269 270 269 268 267 268 268 266 267 268 268 270 271 271 273 275 278 281 282 283
277 276 275 274 272 271 273 276 278 280 280 278 275 274 275 274 273 272 271 271 269 269 269 269 269 267 267 267 268 269 267 266 268 270 270 270 271 274 277 280 281 282 282
275 274 274 273 272 271 272 275 278 280 280 279 276 275 275 274 274 273 273 273 271 270 270 270 267 265 265 267 267 266 266 267 268 269 269 269 272 276 279 281 281 281 280
274 273 274 273 271 272 272 275 277 278 279 279 276 274 273 273 274 273 275 275 272 270 270 269 266 265 265 265 265 264 264 266 266 267 270 272 275 277 278 278 278 278 278
274 273 273 272 271 272 273 274 275 276 277 280 278 275 273 273 273 273 274 275 271 268 266 265 264 264 264 266 265 263 264 267 268 269 272 273 274 274 272 272 274 275 275
273 272 272 270 269 270 270 269 270 273 275 278 280 277 274 274 273 274 275 273 268 264 262 262 262 260 263 266 266 264 265 268 270 271 270 270 269 267 264 266 270 272 275
270 269 268 267 266 266 264 264 267 270 273 276 279 278 277 275 274 273 273 269 264 261 259 259 258 258 262 263 265 267 268 270 270 267 266 267 263 259 260 261 264 269 272
267 264 262 261 261 261 261 262 264 267 271 275 278 276 275 276 274 272 268 263 259 257 257 259 258 260 262 264 266 268 267 268 267 265 266 266 259 256 258 257 260 263 265
265 261 259 257 258 260 259 260 261 265 270 273 275 273 272 272 272 268 262 261 259 258 259 258 257 260 261 261 262 262 261 259 259 258 262 257 248 244 245 249 254 258 261
262 259 258 256 256 256 256 258 261 263 266 270 272 273 272 268 264 259 258 260 258 257 257 257 257 255 254 254 254 252 251 251 255 260 256 243 239 239 238 243 249 252 251
Height
5619 5619 5618 5617 5617 5616 5616 5616 5616 5616 5616 5617 5616 5616 5616 5616 5616 5616 5616 5617 5617 5617 5616 5616 5617 5617 5617 5617 5617 5616 5616 5616 5616 5616 5615 5614 5613 5612 5611 5610 5609 5607 5606
5608 5608 5607 5607 5606 5605 5604 5604 5604 5604 5604 5604 5604 5604 5604 5604 5604 5604 5604 5604 5604 5604 5604 5604 5604 5604 5604 5604 5604 5604 5604 5603 5603 5603 5603 5602 5601 5600 5599 5598 5596 5595 5593
5598 5597 5596 5595 5595 5594 5593 5592 5592 5592 5592 5592 5592 5592 5592 5592 5592 5592 5592 5592 5592 5592 5591 5591 5591 5591 5591 5591 5591 5591 5591 5591 5591 5591 5591 5590 5589 5588 5587 5586 5584 5582 5581
5587 5586 5585 5584 5583 5582 5581 5581 5581 5581 5581 5581 5581 5581 5581 5581 5581 5581 5580 5580 5580 5580 5579 5579 5578 5578 5578 5578 5578 5578 5578 5579 5578 5578 5578 5578 5577 5576 5575 5574 5572 5570 5569
5576 5575 5574 5573 5572 5571 5570 5570 5570 5569 5569 5569 5569 5569 5569 5569 5569 5569 5569 5568 5568 5568 5567 5566 5566 5566 5565 5565 5566 5566 5566 5566 5566 5566 5566 5566 5565 5564 5563 5561 5560 5559 5557
5565 5564 5563 5562 5561 5560 5559 5559 5559 5559 5558 5558 5558 5558 5558 5558 5558 5558 5557 5557 5556 5556 5555 5555 5554 5554 5554 5553 5554 5554 5554 5554 5555 5555 5554 5554 5553 5552 5551 5550 5549 5547 5546
5553 5553 5552 5550 5550 5549 5548 5548 5548 5548 5548 5548 5548 5547 5547 5547 5547 5546 5546 5545 5545 5544 5544 5543 5543 5543 5542 5542 5542 5542 5542 5542 5543 5543 5543 5542 5542 5541 5540 5539 5537 5536 5534
5543 5542 5541 5540 5539 5539 5538 5538 5538 5538 5538 5538 5537 5537 5537 5537 5537 5536 5535 5534 5534 5533 5533 5532 5532 5532 5532 5531 5531 5531 5532 5532 5532 5532 5532 5531 5530 5529 5528 5528 5526 5525 5523
5532 5532 5531 5530 5530 5529 5529 5529 5528 5528 5528 5528 5528 5527 5527 5527 5526 5526 5525 5524 5524 5523 5523 5522 5522 5522 5521 5521 5521 5521 5521 5521 5520 5520 5520 5519 5519 5518 5517 5517 5516 5514 5513
5523 5523 5522 5521 5521 5520 5520 5520 5519 5519 5519 5519 5518 5518 5518 5517 5517 5516 5515 5515 5514 5514 5513 5512 5512 5512 5512 5511 5511 5511 5511 5511 5510 5510 5509 5509 5508 5508 5507 5506 5505 5504 5503
5515 5514 5514 5513 5513 5512 5511 5511 5511 5511 5510 5510 5510 5509 5508 5508 5508 5507 5506 5505 5504 5504 5503 5503 5503 5503 5503 5502 5502 5501 5501 5501 5500 5500 5499 5499 5498 5498 5497 5497 5496 5495 5494
5508 5507 5506 5506 5505 5504 5504 5503 5503 5502 5502 5501 5501 5500 5499 5499 5499 5498 5497 5496 5495 5494 5494 5494 5493 5493 5493 5493 5492 5492 5492 5491 5491 5491 5490 5490 5489 5489 5489 5488 5487 5486 5485
5501 5500 5499 5498 5498 5497 5496 5496 5495 5494 5494 5493 5492 5492 5491 5490 5490 5489 5488 5487 5486 5486 5485 5485 5485 5484 5484 5483 5483 5483 5483 5483 5482 5482 5482 5482 5481 5481 5480 5480 5479 5478 5477
5494 5493 5492 5491 5490 5490 5489 5488 5488 5487 5486 5485 5484 5484 5483 5482 5481 5481 5480 5479 5478 5478 5478 5477 5476 5476 5475 5475 5475 5475 5474 5474 5475 5475 5475 5474 5474 5473 5473 5473 5472 5471 5470
5487 5486 5485 5484 5484 5483 5482 5481 5481 5480 5479 5478 5477 5476 5475 5474 5473 5473 5472 5471 5471 5471 5470 5470 5469 5468 5467 5467 5467 5467 5467 5467 5467 5468 5468 5467 5467 5467 5466 5465 5465 5464 5463
5480 5479 5478 5478 5477 5476 5475 5475 5474 5473 5471 5470 5469 5468 5468 5467 5465 5465 5464 5463 5463 5463 5463 5463 5462 5461 5461 5461 5461 5461 5461 5461 5461 5461 5461 5461 5461 5460 5460 5459 5458 5457 5455
5473 5472 5471 5471 5470 5470 5469 5468 5467 5466 5465 5463 5462 5461 5461 5460 5459 5458 5457 5457 5457 5456 5456 5456 5456 5455 5455 5455 5455 5454 5455 5455 5455 5455 5455 5455 5454 5454 5453 5452 5451 5450 5449
5467 5466 5465 5465 5464 5463 5463 5462 5461 5460 5458 5457 5456 5455 5454 5453 5452 5452 5451 5451 5451 5450 5450 5451 5451 5450 5450 5449 5449 5449 5449 5449 5449 5449 5449 5448 5448 5448 5447 5446 5445 5444 5443
5461 5460 5459 5459 5458 5457 5457 5456 5455 5454 5452 5451 5450 5449 5448 5447 5446 5446 5445 5445 5445 5445 5445 5445 5445 5445 5445 5445 5445 5444 5444 5444 5444 5444 5443 5443 5443 5442 5441 5440 5439 5438 5437
5454 5454 5453 5452 5452 5451 5451 5450 5449 5448 5447 5445 5444 5443 5443 5442 5442 5441 5441 5440 5440 5440 5440 5440 5440 5440 5440 5440 5440 5440 5440 5440 5439 5439 5439 5438 5438 5437 5436 5435 5435 5434 5433
5448 5447 5447 5446 5446 5446 5445 5444 5443 5443 5442 5440 5439 5438 5438 5437 5437 5437 5436 5436 5436 5436 5436 5436 5436 5436 5436 5436 5436 5436 5435 5435 5435 5435 5434 5434 5433 5433 5432 5431 5431 5430 5429
5441 5441 5441 5440 5440 5440 5440 5439 5439 5438 5437 5436 5435 5434 5433 5433 5432 5432 5432 5431 5431 5431 5432 5432 5432 5432 5432 5432 5432 5432 5432 5432 5431 5431 5430 5430 5429 5429 5429 5428 5428 5427 5426
5434 5434 5434 5434 5434 5434 5434 5434 5434 5434 5433 5432 5431 5430 5429 5429 5428 5428 5428 5428 5428 5428 5428 5429 5429 5429 5429 5429 5429 5429 5429 5428 5428 5427 5427 5426 5426 5426 5426 5426 5425 5425 5424
5428 5428 5428 5429 5429 5430 5430 5430 5430 5429 5429 5428 5427 5427 5426 5425 5425 5424 5424 5424 5425 5425 5425 5426 5426 5426 5427 5427 5426 5426 5426 5426 5425 5425 5425 5424 5424 5424 5424 5424 5423 5423 5423
5422 5423 5423 5424 5424 5425 5425 5425 5425 5425 5425 5424 5424 5423 5423 5422 5422 5422 5422 5422 5422 5423 5423 5423 5423 5424 5424 5424 5424 5424 5424 5423 5423 5423 5423 5422 5422 5422 5422 5422 5422 5422 5422
5418 5418 5418 5419 5419 5420 5420 5421 5421 5421 5421 5421 5420 5420 5419 5419 5419 5419 5420 5420 5420 5420 5421 5421 5421 5421 5422 5422 5422 5422 5422 5422 5422 5421 5421 5421 5421 5421 5421 5421 5421 5421 5421